This demonstration page uses our WeatherBlox Daily Observations layout. Learn more.

39.01783, -85.05884

Hourly Observations for January 6, 2019

Temp ( °F °C ) Dew Point ( °F °C ) Humidity (%) Winds ( mph kmh ) Pressure ( in mb ) Visibility ( mi km ) Precip ( " mm )
12:52 am 00:52 Partly Cloudy 40 4.4 35 1.7 83 83 SW 6 9 30.03 1017 10 16.09344 0 0
1:52 am 01:52 Partly Cloudy 41 5 36 2.2 82 82 SW 3 6 30.03 1017 10 16.09344 0 0
2:52 am 02:52 Clear 37 2.8 34 1.1 89 89 Calm 30.06 1018 10 16.09344 0 0
3:52 am 03:52 Clear 38 3.3 35 1.7 89 89 WSW 6 9 30.09 1019 9 14.484096 0 0
4:52 am 04:52 Clear 37 2.8 34 1.1 89 89 Calm 30.09 1019 10 16.09344 0 0
5:52 am 05:52 Clear 34 1.1 32 0 92 92 Calm 30.12 1020 10 16.09344 0 0
6:52 am 06:52 Clear with Mist and Fog 32 0 31 -0.6 96 96 SSW 3 6 30.15 1021 4 6.437376 0 0
7:52 am 07:52 Mostly Clear with Mist and Fog 32 0 31 -0.6 96 96 Calm 30.15 1021 4 6.437376 0 0
8:52 am 08:52 Mostly Cloudy with Mist and Fog 33 0.6 32 0 96 96 Calm 30.18 1022 3 4.828032 0 0
9:52 am 09:52 Mostly Cloudy with Mist and Fog 41 5 38 3.3 89 89 N 3 6 30.21 1023 5 8.04672 0 0
10:52 am 10:52 Partly Cloudy 46 7.8 38 3.3 73 73 ENE 9 15 30.24 1024 8 12.874752 0 0
11:52 am 11:52 Partly Cloudy 48 8.9 38 3.3 68 68 E 7 11 30.21 1023 10 16.09344 0 0
12:52 pm 12:52 Mostly Cloudy 49 9.4 38 3.3 66 66 ENE 8 13 30.18 1022 10 16.09344 0 0
1:52 pm 13:52 Mostly Cloudy 51 10.6 38 3.3 61 61 NE 7 11 30.18 1022 10 16.09344 0 0
2:52 pm 14:52 Mostly Cloudy 51 10.6 38 3.3 61 61 E 6 9 30.15 1021 10 16.09344 0 0
3:52 pm 15:52 Mostly Cloudy 51 10.6 38 3.3 61 61 NE 9 15 30.18 1022 10 16.09344 0 0
4:52 pm 16:52 Mostly Cloudy 50 10 38 3.3 63 63 ENE 9 15 30.18 1022 10 16.09344 0 0
5:52 pm 17:52 Mostly Cloudy 48 8.9 38 3.3 68 68 ENE 9 15 30.21 1023 10 16.09344 0 0
6:52 pm 18:52 Cloudy 46 7.8 38 3.3 73 73 E 10 17 30.21 1023 10 16.09344 0 0
7:52 pm 19:52 Mostly Cloudy 44 6.7 37 2.8 76 76 ENE 9 15 30.21 1023 10 16.09344 0 0
8:52 pm 20:52 Cloudy 45 7.2 37 2.8 74 74 E 10 17 30.21 1023 10 16.09344 0 0
9:52 pm 21:52 Cloudy 44 6.7 37 2.8 76 76 E 9 15 30.24 1024 9 14.484096 0 0
10:52 pm 22:52 Cloudy 44 6.7 37 2.8 76 76 E 10 17 30.21 1023 10 16.09344 0 0
11:52 pm 23:52 Cloudy 43 6.1 37 2.8 80 80 E 9 15 30.21 1023 10 16.09344 0 0

Powered by AerisWeather